{"data":{"norad_id":69845,"intl_designator":"2026-154AC","name":"STARLINK-37606","alt_names":[],"object_type":"PAYLOAD","status":"ACTIVE","operator":null,"country":"US","launch_date":"2026-07-05","launch_site_code":"AFETR","launch_vehicle":null,"mission":null,"orbit_class":"UNKNOWN","rcs_meters":null,"size_class":null,"mass_kg":null,"dimensions":null,"purposes":["comms"],"wikipedia_slug":null,"has_3d_model":false,"image_url":null,"decayed_at":null,"tle_current":{"epoch":"2026-09-20T04:44:29.653152Z","epoch_age_seconds":43898,"freshness":"FRESH","line1":"1 69845U 26154AC  26263.19756543  .00012456  00000+0  37863-3 0  9996","line2":"2 69845  53.1598 332.9718 0001227 132.0927 228.0180 15.34445305 13193","mean_motion":15.34445305,"eccentricity":0.0001227,"inclination_deg":53.1598,"raan_deg":332.9718,"arg_perigee_deg":132.0927,"mean_anomaly_deg":228.018,"bstar":0.00037863,"rev_number":1319,"period_min":93.844987195552,"perigee_km":461.72923293707,"apogee_km":463.40794208824,"semimajor_km":6840.7055875127,"source":"CELESTRAK","updated_at":"2026-09-20T09:00:44.298053Z"}}}